Weather History for Goshen, IN

Change the Weather History Date:

Saturday, January 19, 2013

  Actual Average Record
Temperature  
Mean Temperature 42 °F -  
Max Temperature 48 °F 30 °F 56 °F (1973)
Min Temperature 36 °F 14 °F -14 °F (1984)
Degree Days  
Heating Degree Days 23    
Moisture  
Dew Point 30 °F    
Average Humidity 62    
Maximum Humidity 70    
Minimum Humidity 51    
Precipitation  
Precipitation 0.00 in - - ()
Sea Level Pressure  
Sea Level Pressure 29.88 in    
Wind  
Wind Speed 19 mph (SW)    
Max Wind Speed 28 mph    
Max Gust Speed 36 mph    
Visibility 10 miles    
Events      
Averages and records for this station are not official NWS values.
T = Trace of Precipitation, MM = Missing Value Source: NWS Daily Summary

Daily Weather History Graph

Daily Weather History Graph

Search for Another Location

Airport:

Trip Planner

Search our weather history database for the weather conditions in past years. The results will help you decide how hot, cold, wet, or windy it might be!

Date:

Astronomy

Jan. 19, 2013 Rise Set
Actual Time 8:05 AM EST 5:43 PM EST
Civil Twilight 7:34 AM EST 6:13 PM EST
Nautical Twilight 7:00 AM EST 6:47 PM EST
Astronomical Twilight 6:27 AM EST 7:20 PM EST
Moon 12:09 PM EST (1/19) 1:37 AM EST (1/19)
Length of Visible Light 10h 38m
Length of Day
9h 38m
First Quarter, 57% of the Moon is Illuminated
Jan 19
First Quarter
Jan 26
Full
Feb 3
Last Quarter
Feb 10
New
Feb 17
First Quarter

Hourly Weather History & Observations

Time (EST) Temp. Windchill Dew Point Humidity Pressure Visibility Wind Dir Wind Speed Gust Speed Precip Events Conditions
1:53 AM 39.0 °F 28.8 °F 25.0 °F 57% 30.00 in 10.0 mi SW 21.9 mph 31.1 mph N/A   Clear
2:53 AM 39.0 °F 29.3 °F 25.0 °F 57% 30.01 in 10.0 mi SW 19.6 mph 29.9 mph N/A   Clear
3:53 AM 37.9 °F 28.5 °F 26.1 °F 62% 30.00 in 10.0 mi SW 17.3 mph 25.3 mph N/A   Clear
4:53 AM 37.9 °F 28.5 °F 26.1 °F 62% 29.99 in 10.0 mi SW 17.3 mph 26.5 mph N/A   Clear
5:53 AM 37.0 °F 27.0 °F 27.0 °F 67% 29.99 in 10.0 mi SW 18.4 mph 24.2 mph N/A   Clear
6:53 AM 37.0 °F 28.1 °F 27.0 °F 67% 29.99 in 10.0 mi SW 15.0 mph 24.2 mph N/A   Clear
7:53 AM 36.0 °F 26.7 °F 27.0 °F 70% 29.98 in 10.0 mi SW 15.0 mph - N/A   Clear
8:53 AM 37.9 °F 28.9 °F 27.0 °F 65% 29.97 in 10.0 mi SW 16.1 mph - N/A   Clear
9:53 AM 39.9 °F 30.8 °F 28.0 °F 63% 29.97 in 10.0 mi SW 18.4 mph 28.8 mph N/A   Clear
10:53 AM 44.1 °F 36.2 °F 28.0 °F 53% 29.96 in 10.0 mi SW 18.4 mph 29.9 mph N/A   Clear
11:53 AM 46.0 °F 38.0 °F 28.9 °F 51% 29.92 in 10.0 mi SW 21.9 mph 28.8 mph N/A   Clear
12:53 PM 46.9 °F - 30.0 °F 52% 29.87 in 10.0 mi SW 21.9 mph 29.9 mph N/A   Clear
1:53 PM 48.0 °F - 30.9 °F 52% 29.83 in 10.0 mi SW 25.3 mph 35.7 mph N/A   Clear
2:53 PM 48.0 °F - 30.9 °F 52% 29.81 in 10.0 mi SW 27.6 mph 35.7 mph N/A   Clear
3:53 PM 46.0 °F 37.8 °F 32.0 °F 58% 29.79 in 10.0 mi SW 23.0 mph 27.6 mph N/A   Clear
4:53 PM 46.0 °F 38.3 °F 33.1 °F 61% 29.77 in 10.0 mi SSW 20.7 mph 26.5 mph N/A   Mostly Cloudy
5:53 PM 45.0 °F 37.9 °F 33.1 °F 63% 29.78 in 10.0 mi SW 16.1 mph 26.5 mph N/A   Scattered Clouds
6:53 PM 43.0 °F 35.4 °F 33.1 °F 68% 29.78 in 10.0 mi SSW 16.1 mph - N/A   Clear
7:53 PM 42.1 °F 33.9 °F 33.1 °F 70% 29.78 in 10.0 mi SW 17.3 mph - N/A   Clear
8:53 PM 43.0 °F 35.1 °F 33.1 °F 68% 29.76 in 10.0 mi SW 17.3 mph 26.5 mph N/A   Clear
9:53 PM 43.0 °F 34.5 °F 33.1 °F 68% 29.75 in 10.0 mi WSW 19.6 mph 25.3 mph N/A   Clear
10:53 PM 42.1 °F 33.3 °F 33.1 °F 70% 29.75 in 10.0 mi WSW 19.6 mph 29.9 mph N/A   Clear
11:53 PM 41.0 °F 31.6 °F 30.9 °F 67% 29.77 in 10.0 mi West 20.7 mph 32.2 mph N/A   Scattered Clouds